Weather Service Report


691 
ASUS44 KOUN 141310
RWROK 

WEATHER ROUNDUP FOR OKLAHOMA
NATIONAL WEATHER SERVICE NORMAN OK
700 AM CST SUN FEB 14 2016

NOTE: "FAIR" INDICATES FEW OR NO CLOUDS BELOW 12,000 FEET WITH NO
      SIGNIFICANT WEATHER AND/OR OBSTRUCTIONS TO VISIBILITY.

OKZ001>007-009>012-014-015-017-141400-
NORTHWEST OKLAHOMA AND THE PANHANDLE
  
CITY           SKY/WX    TMP DP  RH WIND       PRES   REMARKS
GAGE           CLOUDY    28  24  85 NW7       30.00R WCI  21          
GUYMON         CLOUDY    34  26  72 NW9       30.03R WCI  27          
ENID/WOODRING  MOCLDY    36  30  80 N7        29.97R WCI  30          
$$

OKZ016-021>023-033>039-044-045-141400-
SOUTHWEST OKLAHOMA
  
CITY           SKY/WX    TMP DP  RH WIND       PRES   REMARKS
LAWTON/REGL    PTCLDY    45  44  97 SE6       29.90S FOG              
LAWTON/FT SILL PTCLDY    45  45 100 N2        29.89R                  
FREDERICK      CLOUDY    42  41  96 CALM      29.85R                  
CLINTON        CLOUDY    37  33  85 N18       29.96R WCI  27          
HOBART         CLOUDY    45  41  86 N15       29.93R                  
ALTUS AFB      CLOUDY    43  38  83 N13       29.89R                  
$$

OKZ018>020-024>031-141400-
CENTRAL OKLAHOMA
  
CITY           SKY/WX    TMP DP  RH WIND       PRES   REMARKS
OKLAHOMA CITY  CLOUDY    49  46  90 N8        29.95R                  
OKC/WILEY POST CLOUDY    50  44  80 NW7       29.96R                  
OKC/TINKER AFB CLOUDY    50  46  87 W6        29.94R                  
STILLWATER     CLOUDY    40  29  64 E6        29.95F                  
GUTHRIE        CLOUDY    45  37  73 E3        29.95S                  
$$

OKZ008-013-054>072-141400-
NORTHEAST OKLAHOMA
  
CITY           SKY/WX    TMP DP  RH WIND       PRES   REMARKS
TULSA          CLOUDY    41  24  51 E7        29.99R                  
TULSA/JONES    CLOUDY    43  25  49 CALM      30.01R                  
BARTLESVILLE   CLOUDY    39  20  46 NE5       30.02S                  
MUSKOGEE       CLOUDY    38  21  50 SE12      30.00R WCI  30          
$$

OKZ032-040>043-046>053-073>077-141400-
SOUTH CENTRAL/SOUTHEAST OKLAHOMA
  
CITY           SKY/WX    TMP DP  RH WIND       PRES   REMARKS
ARDMORE/DWNTWN CLOUDY    55  50  82 SW5       29.97R                  
MCALESTER      CLOUDY    50  39  66 S12G17    29.99R                  
$$

  

Return to Home page


Western Regional Climate Center, wrcc@dri.edu